CW5049 Weather Reports


time (UTC)temp
F
wind
direction
speed
knots
gust
knots
rain 1hr
in
rain 24hr
in
rain mn
in
humidity
%
barometer
mb
20260507121556 48 93 1.7 4.3 0.00 0.00 0.00 85 1020.4
20260507120051 48 75 1.7 5.2 0.00 0.00 0.00 84 1020.6
20260507114552 48 16 0.9 6.1 0.00 0.00 0.00 84 1020.8
20260507113047 49 55 1.7 5.2 0.00 0.00 0.00 84 1020.7
20260507111547 49 58 1.7 5.2 0.00 0.00 0.00 83 1020.7
20260507110046 49 0 0.9 2.6 0.00 0.00 0.00 81 1020.8
20260507104544 49 32 1.7 3.5 0.00 0.00 0.00 80 1020.8
20260507103041 49 127 0.9 3.5 0.00 0.00 0.00 81 1020.9
20260507101557 49 136 0.9 4.3 0.00 0.00 0.00 81 1020.9
20260507100056 50 118 0.9 5.2 0.00 0.00 0.00 81 1021.0
20260507094548 50 143 1.7 5.2 0.00 0.00 0.00 81 1020.9
20260507093046 50 102 2.6 6.1 0.00 0.00 0.00 81 1020.9
20260507091543 50 186 0.9 7.0 0.00 0.00 0.00 82 1020.9
20260507090047 50 143 0.9 5.2 0.00 0.00 0.00 83 1020.8
20260507084547 50 161 2.6 6.1 0.00 0.00 0.00 84 1020.8
20260507083105 50 131 1.7 6.1 0.00 0.00 0.00 84 1020.8
20260507081557 50 166 3.5 5.2 0.00 0.00 0.00 86 1020.8
20260507080044 50 186 1.7 6.1 0.00 0.00 0.00 88 1020.9
20260507074547 50 149 1.7 6.1 0.00 0.00 0.00 87 1020.8
20260507073053 51 115 2.6 6.1 0.00 0.00 0.00 85 1020.8
20260507071542 51 149 4.3 8.7 0.00 0.00 0.00 83 1020.8
20260507070043 51 147 4.3 7.8 0.00 0.00 0.00 82 1020.8
20260507064549 52 161 1.7 4.3 0.00 0.00 0.00 83 1020.7
20260507063050 52 180 0.9 5.2 0.00 0.00 0.00 83 1020.7
20260507061547 52 166 3.5 7.0 0.00 0.00 0.00 83 1020.8
20260507060048 52 155 1.7 5.2 0.00 0.00 0.00 84 1020.8
20260507054545 52 222 0.9 2.6 0.00 0.00 0.00 86 1020.8
20260507053043 52 215 1.7 4.3 0.00 0.00 0.00 87 1020.9
20260507051543 52 230 1.7 3.5 0.00 0.00 0.00 87 1020.8
20260507050041 52 270 2.6 6.1 0.00 0.00 0.00 85 1020.8
20260507044550 53 251 0.9 2.6 0.00 0.00 0.00 85 1020.7
20260507043043 53 256 0.9 1.7 0.00 0.00 0.00 84 1020.8
20260507041546 53 0 0.0 1.7 0.00 0.00 0.00 84 1020.8
20260507040049 53 347 0.0 0.9 0.00 0.00 0.00 84 1020.6
20260507034548 53 263 0.0 2.6 0.00 0.00 0.00 84 1020.6
20260507033047 53 215 0.0 1.7 0.00 0.00 0.00 85 1020.5
20260507031544 53 230 0.9 2.6 0.00 0.00 0.00 85 1020.3
20260507030041 53 230 0.9 2.6 0.00 0.00 0.00 84 1020.2
20260507024601 53 274 0.9 2.6 0.00 0.00 0.00 85 1020.3
20260507023048 53 266 1.7 3.5 0.00 0.00 0.00 85 1020.0
20260507021547 54 237 1.7 3.5 0.00 0.00 0.00 84 1020.1
20260507014602 54 347 1.7 4.3 0.00 0.00 0.00 83 1020.0
20260507013050 55 307 0.9 3.5 0.00 0.00 0.00 83 1019.9
20260507011548 54 284 0.9 5.2 0.00 0.00 0.00 82 1020.0
20260507010047 55 313 2.6 7.0 0.00 0.00 0.00 81 1020.2
20260507004546 55 288 1.7 4.3 0.00 0.00 0.00 80 1020.1
20260507003043 55 299 2.6 7.0 0.00 0.00 0.00 80 1020.2
20260507001553 55 13 1.7 7.0 0.00 0.00 0.00 80 1020.2
20260507000050 55 274 2.6 7.8 0.00 0.00 0.00 81 1020.3
20260506234553 54 238 1.7 7.0 0.00 0.00 0.00 81 1020.2
20260506233046 54 270 3.5 7.8 0.00 0.00 0.00 81 1020.2
20260506231555 55 249 6.1 9.6 0.00 0.00 0.00 80 1020.2
20260506230054 55 127 1.7 6.1 0.00 0.00 0.00 80 1020.3
20260506224549 55 184 2.6 4.3 0.00 0.00 0.00 80 1020.3
20260506223055 55 212 0.0 4.3 0.00 0.00 0.00 82 1020.5
20260506221548 54 157 2.6 6.1 0.00 0.00 0.00 83 1020.7
20260506220049 54 203 1.7 5.2 0.00 0.00 0.00 84 1020.6
20260506214546 54 118 1.7 6.1 0.00 0.00 0.00 85 1020.6
20260506213100 54 128 1.7 4.3 0.00 0.00 0.00 86 1020.6
20260506211556 53 191 2.6 6.1 0.00 0.00 0.00 88 1020.6
20260506210048 53 165 1.7 5.2 0.00 0.00 0.00 89 1020.7
20260506204555 52 251 1.7 6.1 0.00 0.00 0.00 90 1020.7
20260506203049 52 0 2.6 6.1 0.00 0.00 0.00 89 1020.6
20260506201557 52 201 1.7 5.2 0.00 0.00 0.00 89 1020.5
20260506200042 52 149 1.7 5.2 0.00 0.00 0.00 89 1020.4
20260506194557 52 121 0.9 4.3 0.00 0.00 0.00 90 1020.4
20260506193046 52 181 1.7 7.0 0.00 0.00 0.00 91 1020.3
20260506191548 51 219 1.7 6.1 0.00 0.00 0.00 91 1020.4
20260506190046 51 214 2.6 7.0 0.00 0.00 0.00 92 1020.3
20260506184551 51 210 2.6 5.2 0.00 0.00 0.00 92 1020.2
20260506183056 51 138 1.7 5.2 0.00 0.00 0.00 91 1019.9
20260506181549 51 166 2.6 5.2 0.00 0.00 0.00 92 1020.0
20260506180050 51 161 1.7 7.8 0.00 0.00 0.00 93 1020.0
20260506174547 51 226 4.3 7.8 0.00 0.00 0.00 93 1020.1
20260506173051 51 219 3.5 7.0 0.00 0.00 0.00 94 1020.0
20260506171544 51 238 5.2 7.0 0.00 0.00 0.00 93 1020.0
20260506164548 51 160 1.7 4.3 0.00 0.00 0.00 94 1019.7
20260506163058 51 0 0.0 4.3 0.00 0.00 0.00 94 1019.5
20260506161548 51 0 1.7 7.0 0.00 0.00 0.00 94 1019.9
20260506160046 50 211 1.7 5.2 0.00 0.00 0.00 94 1019.7
20260506154548 50 170 1.7 3.5 0.00 0.00 0.00 94 1019.4
20260506153041 50 230 2.6 7.8 0.00 0.00 0.00 94 1019.7
20260506151549 50 238 3.5 7.0 0.00 0.00 0.00 95 1019.6
20260506150048 51 208 1.7 3.5 0.00 0.00 0.00 95 1019.3
20260506144600 50 58 0.9 4.3 0.00 0.00 0.00 95 1018.9
20260506143045 50 161 0.9 3.5 0.00 0.00 0.00 95 1019.4
20260506141543 50 230 0.9 4.3 0.00 0.00 0.00 95 1019.4
20260506140045 50 170 1.7 4.3 0.00 0.00 0.00 94 1019.5
20260506134540 50 212 1.7 3.5 0.00 0.00 0.00 94 1019.4
20260506133051 50 165 1.7 4.3 0.00 0.00 0.00 94 1019.1
20260506131547 50 133 0.9 4.3 0.00 0.00 0.00 94 1018.9
20260506130057 50 183 1.7 4.3 0.00 0.00 0.00 94 1018.9
20260506124548 50 186 1.7 5.2 0.00 0.00 0.00 93 1018.6
20260506123042 51 174 1.7 3.5 0.00 0.00 0.00 93 1018.6